TimeCDT,TemperatureF,Dew PointF,Humidity,Sea Level PressureIn,VisibilityMPH,Wind Direction,Wind SpeedMPH,Gust SpeedMPH,PrecipitationIn,Events,Conditions,WindDirDegrees,DateUTC
12:53 AM,61.0,55.0,81,29.82,10.0,West,11.5,-,N/A,,Overcast,270,2013-05-23 05:53:00
1:53 AM,59.0,54.0,83,29.81,10.0,West,9.2,-,N/A,,Scattered Clouds,260,2013-05-23 06:53:00
2:15 AM,57.2,53.6,88,29.82,10.0,West,8.1,-,N/A,,Mostly Cloudy,260,2013-05-23 07:15:00
2:26 AM,57.2,53.6,88,29.82,10.0,WSW,8.1,-,N/A,,Scattered Clouds,250,2013-05-23 07:26:00
2:53 AM,57.9,54.0,87,29.81,10.0,WSW,9.2,-,N/A,,Mostly Cloudy,240,2013-05-23 07:53:00
3:53 AM,59.0,55.0,87,29.83,10.0,West,11.5,-,N/A,,Overcast,270,2013-05-23 08:53:00
4:53 AM,59.0,54.0,83,29.84,10.0,West,9.2,-,N/A,,Overcast,260,2013-05-23 09:53:00
5:31 AM,57.2,53.6,88,29.86,10.0,West,9.2,-,N/A,,Overcast,270,2013-05-23 10:31:00
5:43 AM,57.2,53.6,88,29.86,10.0,West,10.4,-,N/A,,Overcast,260,2013-05-23 10:43:00
5:53 AM,57.9,54.0,87,29.86,10.0,West,8.1,-,N/A,,Overcast,270,2013-05-23 10:53:00
6:53 AM,59.0,54.0,83,29.88,9.0,West,10.4,-,N/A,,Overcast,270,2013-05-23 11:53:00
7:41 AM,59.0,53.6,82,29.90,10.0,West,12.7,-,N/A,,Mostly Cloudy,280,2013-05-23 12:41:00
7:53 AM,59.0,54.0,83,29.90,10.0,West,13.8,-,N/A,,Overcast,280,2013-05-23 12:53:00
8:39 AM,60.8,53.6,77,29.92,10.0,WNW,13.8,-,N/A,,Overcast,290,2013-05-23 13:39:00
8:48 AM,60.8,53.6,77,29.92,10.0,West,13.8,-,N/A,,Overcast,280,2013-05-23 13:48:00
8:53 AM,60.1,54.0,80,29.92,10.0,West,11.5,-,N/A,,Overcast,280,2013-05-23 13:53:00
9:53 AM,59.0,54.0,83,29.93,10.0,WNW,13.8,-,N/A,,Overcast,290,2013-05-23 14:53:00
10:53 AM,59.0,55.9,90,29.96,3.0,WNW,11.5,-,0.00,Rain,Light Rain,300,2013-05-23 15:53:00
11:12 AM,59.0,55.4,88,29.96,3.0,WNW,9.2,-,0.00,Rain,Light Rain,300,2013-05-23 16:12:00
11:49 AM,60.8,57.2,88,29.97,6.0,NW,9.2,-,0.00,,Overcast,310,2013-05-23 16:49:00
11:53 AM,60.1,55.9,86,29.97,3.0,North,18.4,21.9,0.00,Rain,Light Rain,360,2013-05-23 16:53:00
11:56 AM,57.2,55.4,94,29.98,1.8,North,17.3,21.9,0.01,Rain,Rain,10,2013-05-23 16:56:00
12:04 PM,57.2,53.6,88,29.98,2.0,NNE,23.0,26.5,0.01,Rain,Light Rain,20,2013-05-23 17:04:00
12:07 PM,55.4,53.6,94,29.99,3.0,NNE,19.6,-,0.01,Rain,Light Rain,20,2013-05-23 17:07:00
12:19 PM,57.2,53.6,88,29.99,2.0,North,21.9,26.5,0.01,Rain,Light Rain,10,2013-05-23 17:19:00
12:53 PM,59.0,53.1,81,29.99,10.0,North,20.7,27.6,0.01,,Overcast,10,2013-05-23 17:53:00
1:01 PM,59.0,53.6,82,30.00,10.0,NNE,18.4,27.6,N/A,,Mostly Cloudy,20,2013-05-23 18:01:00
1:51 PM,55.4,50.0,82,30.04,9.0,North,20.7,25.3,N/A,,Overcast,10,2013-05-23 18:51:00
1:53 PM,55.9,48.9,77,30.04,9.0,NNE,18.4,25.3,N/A,,Overcast,20,2013-05-23 18:53:00
2:24 PM,55.4,48.2,77,30.06,10.0,North,18.4,28.8,N/A,,Overcast,360,2013-05-23 19:24:00
2:53 PM,55.0,48.0,77,30.07,10.0,North,17.3,-,N/A,,Overcast,360,2013-05-23 19:53:00
3:53 PM,55.9,48.0,75,30.09,10.0,North,18.4,26.5,N/A,,Overcast,360,2013-05-23 20:53:00
4:53 PM,57.0,48.0,72,30.11,10.0,North,18.4,26.5,N/A,,Mostly Cloudy,10,2013-05-23 21:53:00
5:53 PM,57.0,46.0,67,30.14,10.0,North,23.0,28.8,N/A,,Mostly Cloudy,10,2013-05-23 22:53:00
6:53 PM,55.0,45.0,69,30.17,10.0,NNE,18.4,26.5,N/A,,Mostly Cloudy,20,2013-05-23 23:53:00
7:13 PM,53.6,44.6,72,30.17,10.0,North,17.3,27.6,N/A,,Scattered Clouds,10,2013-05-24 00:13:00
7:53 PM,53.1,43.0,69,30.19,10.0,NNE,15.0,21.9,N/A,,Clear,30,2013-05-24 00:53:00
8:53 PM,51.1,42.1,71,30.21,10.0,NNE,13.8,20.7,N/A,,Mostly Cloudy,20,2013-05-24 01:53:00
9:06 PM,51.8,42.8,71,30.21,10.0,NE,9.2,-,N/A,,Mostly Cloudy,40,2013-05-24 02:06:00
9:53 PM,48.9,39.9,71,30.24,10.0,NNE,8.1,-,N/A,,Clear,30,2013-05-24 02:53:00
10:53 PM,46.9,39.0,74,30.25,10.0,NE,9.2,-,N/A,,Clear,40,2013-05-24 03:53:00
11:53 PM,45.0,37.0,74,30.26,10.0,NNE,15.0,-,N/A,,Clear,30,2013-05-24 04:53:00